Ankeny, IA

6:49 AM CDT on March 23, 2017 (GMT -0500)
Ankeny Regional

Weather History for KIKV - February, 2012

Change the Weather History Date:

Wednesday, February 29, 2012

  Actual Average (KDSM) Record (KDSM)
Temperature  
Mean Temperature 44 °F -  
Max Temperature 55 °F - 73 °F (1972)
Min Temperature 33 °F - -5 °F (1960)
Degree Days  
Heating Degree Days 21    
Moisture  
Dew Point 30 °F    
Average Humidity 69    
Maximum Humidity 88    
Minimum Humidity 60    
Precipitation  
Precipitation 0.06 in - - ()
Sea Level Pressure  
Sea Level Pressure 29.51 in    
Wind  
Wind Speed 20 mph (WSW)    
Max Wind Speed 33 mph    
Max Gust Speed 45 mph    
Visibility 9 miles    
Events Rain , Snow    
Averages and records for this station are not official NWS values.
T = Trace of Precipitation, MM = Missing Value Source: NWS Daily Summary

Daily Weather History Graph

Daily Weather History Graph

Search for Another Location

Airport or City:

Trip Planner

Search our weather history database for the weather conditions in past years. The results will help you decide how hot, cold, wet, or windy it might be!

Date:

Astronomy

Feb. 29, 2012 Rise Set
Actual Time 6:49 AM CST 6:04 PM CST
Civil Twilight 6:21 AM CST 6:32 PM CST
Nautical Twilight 5:49 AM CST 7:04 PM CST
Astronomical Twilight 5:17 AM CST 7:36 PM CST
Moon 10:34 AM CST (2/29) 12:58 AM CST (2/29)
Length of Visible Light 12h 10m
Length of Day
11h 14m
Waxing Crescent, 47% of the Moon is Illuminated
Feb 29
Waxing Crescent
Feb 29
First Quarter
Mar 8
Full
Mar 14
Last Quarter
Mar 22
New

Hourly Weather History & Observations

Time (CST) Temp. Windchill Dew Point Humidity Pressure Visibility Wind Dir Wind Speed Gust Speed Precip Events Conditions
12:15 AM 50.0 °F - 44.6 °F 82% 29.39 in 10.0 mi SSE 16.1 mph 23.0 mph 0.03 in Rain Rain
12:35 AM 51.8 °F - 46.4 °F 82% 29.35 in 10.0 mi SSE 10.4 mph 26.5 mph 0.05 in   Scattered Clouds
12:55 AM 51.8 °F - 46.4 °F 82% 29.32 in 10.0 mi SSE 8.1 mph - 0.06 in   Scattered Clouds
1:15 AM 51.8 °F - 46.4 °F 82% 29.32 in 10.0 mi South 8.1 mph - N/A   Scattered Clouds
1:35 AM 51.8 °F - 48.2 °F 88% 29.32 in 10.0 mi South 11.5 mph - N/A   Scattered Clouds
1:55 AM 53.6 °F - 48.2 °F 82% 29.32 in 10.0 mi South 13.8 mph - N/A   Clear
2:15 AM 55.4 °F - 48.2 °F 77% 29.33 in 10.0 mi SSW 23.0 mph 28.8 mph N/A   Scattered Clouds
2:35 AM 53.6 °F - 42.8 °F 67% 29.34 in 10.0 mi SW 24.2 mph 36.8 mph N/A   Mostly Cloudy
2:55 AM 48.2 °F - 37.4 °F 66% 29.36 in 10.0 mi WSW 29.9 mph 41.4 mph N/A   Mostly Cloudy
3:15 AM 46.4 °F 38.7 °F 35.6 °F 66% 29.37 in 10.0 mi SW 20.7 mph 29.9 mph N/A   Scattered Clouds
3:35 AM 44.6 °F 36.4 °F 33.8 °F 66% 29.37 in 10.0 mi WSW 20.7 mph 28.8 mph N/A   Clear
3:55 AM 42.8 °F 34.5 °F 32.0 °F 66% 29.38 in 10.0 mi WSW 18.4 mph 27.6 mph N/A   Clear
4:15 AM 42.8 °F 34.3 °F 32.0 °F 66% 29.39 in 10.0 mi WSW 19.6 mph 27.6 mph N/A   Clear
4:35 AM 41.0 °F 31.9 °F 30.2 °F 65% 29.40 in 10.0 mi WSW 19.6 mph 26.5 mph N/A   Mostly Cloudy
4:55 AM 39.2 °F 29.3 °F 28.4 °F 65% 29.41 in 10.0 mi WSW 20.7 mph 34.5 mph N/A   Mostly Cloudy
5:15 AM 39.2 °F 27.0 °F 28.4 °F 65% 29.41 in 10.0 mi WSW 32.2 mph 40.3 mph N/A   Overcast
5:35 AM 37.4 °F 26.1 °F 28.4 °F 70% 29.42 in 10.0 mi SW 24.2 mph 32.2 mph N/A   Overcast
5:55 AM 37.4 °F 25.4 °F 26.6 °F 65% 29.42 in 10.0 mi SW 27.6 mph 33.4 mph N/A   Overcast
6:15 AM 37.4 °F 26.4 °F 26.6 °F 65% 29.41 in 10.0 mi WSW 23.0 mph 35.7 mph N/A   Overcast
6:35 AM 37.4 °F 26.6 °F 26.6 °F 65% 29.42 in 10.0 mi WSW 21.9 mph 38.0 mph N/A   Overcast
6:55 AM 37.4 °F 25.4 °F 26.6 °F 65% 29.42 in 10.0 mi SW 27.6 mph 40.3 mph N/A   Overcast
7:15 AM 37.4 °F 28.2 °F 26.6 °F 65% 29.43 in 10.0 mi WSW 16.1 mph 34.5 mph N/A   Overcast
7:35 AM 37.4 °F 26.1 °F 26.6 °F 65% 29.43 in 10.0 mi WSW 24.2 mph 29.9 mph N/A   Overcast
7:55 AM 37.4 °F 26.6 °F 26.6 °F 65% 29.43 in 10.0 mi WSW 21.9 mph 38.0 mph N/A   Overcast
8:15 AM 37.4 °F 26.1 °F 26.6 °F 65% 29.43 in 10.0 mi WSW 24.2 mph 39.1 mph N/A   Overcast
8:35 AM 37.4 °F 26.1 °F 26.6 °F 65% 29.43 in 10.0 mi WSW 24.2 mph 36.8 mph N/A   Overcast
8:55 AM 37.4 °F 25.6 °F 24.8 °F 60% 29.43 in 10.0 mi WSW 26.5 mph 35.7 mph N/A   Mostly Cloudy
9:15 AM 37.4 °F 26.4 °F 24.8 °F 60% 29.44 in 10.0 mi WSW 23.0 mph 39.1 mph N/A   Mostly Cloudy
9:55 AM 35.6 °F 22.7 °F 24.8 °F 65% 29.45 in 10.0 mi WSW 28.8 mph 40.3 mph N/A   Overcast
10:15 AM 35.6 °F 23.0 °F 24.8 °F 65% 29.46 in 10.0 mi WSW 27.6 mph 40.3 mph N/A   Overcast
10:35 AM 35.6 °F 22.3 °F 24.8 °F 65% 29.47 in 2.0 mi WSW 31.1 mph 44.9 mph N/A Snow Light Snow
10:55 AM 35.6 °F 24.0 °F 24.8 °F 65% 29.48 in 10.0 mi WSW 23.0 mph 35.7 mph N/A   Overcast
11:15 AM 35.6 °F 22.5 °F 24.8 °F 65% 29.50 in 10.0 mi WSW 29.9 mph 41.4 mph N/A   Overcast
11:35 AM 35.6 °F 23.4 °F 24.8 °F 65% 29.51 in 10.0 mi WSW 25.3 mph 40.3 mph N/A   Overcast
12:15 PM 35.6 °F 22.7 °F 24.8 °F 65% 29.52 in 10.0 mi West 28.8 mph 40.3 mph N/A   Overcast
12:35 PM 35.6 °F 24.8 °F 24.8 °F 65% 29.53 in 10.0 mi WSW 19.6 mph 40.3 mph N/A   Overcast
12:55 PM 35.6 °F 23.0 °F 24.8 °F 65% 29.54 in 10.0 mi West 27.6 mph 35.7 mph N/A   Overcast
1:15 PM 35.6 °F 24.0 °F 24.8 °F 65% 29.54 in 10.0 mi West 23.0 mph 31.1 mph N/A   Overcast
1:35 PM 33.8 °F 21.3 °F 24.8 °F 70% 29.55 in 10.0 mi West 24.2 mph 38.0 mph N/A   Overcast
1:55 PM 33.8 °F 19.4 °F 24.8 °F 70% 29.56 in 10.0 mi West 33.4 mph 40.3 mph N/A   Overcast
2:15 PM 33.8 °F 21.3 °F 24.8 °F 70% 29.57 in 10.0 mi West 24.2 mph 36.8 mph N/A   Overcast
2:35 PM 33.8 °F 21.9 °F 24.8 °F 70% 29.58 in 2.0 mi West 21.9 mph 29.9 mph N/A   Overcast
2:55 PM 33.8 °F 20.5 °F 26.6 °F 75% 29.59 in 1.0 mi West 27.6 mph 38.0 mph N/A Snow Light Snow
3:15 PM 33.8 °F 21.3 °F 26.6 °F 75% 29.60 in 3.0 mi West 24.2 mph 33.4 mph N/A   Overcast
3:35 PM 33.8 °F 22.2 °F 26.6 °F 75% 29.62 in 5.0 mi West 20.7 mph 38.0 mph N/A   Overcast
3:55 PM 35.6 °F 24.2 °F 26.6 °F 70% 29.63 in 10.0 mi West 21.9 mph 35.7 mph N/A   Overcast
4:15 PM 35.6 °F 24.0 °F 26.6 °F 70% 29.65 in 10.0 mi West 23.0 mph 33.4 mph N/A   Overcast
4:55 PM 35.6 °F 23.7 °F 26.6 °F 70% 29.66 in 10.0 mi West 24.2 mph 33.4 mph N/A   Overcast
5:15 PM 35.6 °F 24.0 °F 26.6 °F 70% 29.68 in 10.0 mi West 23.0 mph 27.6 mph N/A   Overcast
5:35 PM 35.6 °F 24.0 °F 26.6 °F 70% 29.69 in 10.0 mi West 23.0 mph 29.9 mph N/A   Overcast
5:55 PM 35.6 °F 24.0 °F 26.6 °F 70% 29.70 in 10.0 mi West 23.0 mph 32.2 mph N/A   Overcast
6:15 PM 35.6 °F 26.2 °F 26.6 °F 70% 29.72 in 10.0 mi West 15.0 mph 28.8 mph N/A   Overcast
6:35 PM 35.6 °F 25.2 °F 26.6 °F 70% 29.73 in 10.0 mi West 18.4 mph 28.8 mph N/A   Overcast
7:15 PM 35.6 °F 24.0 °F 26.6 °F 70% 29.75 in 10.0 mi West 23.0 mph 33.4 mph N/A   Overcast
7:35 PM 35.6 °F 24.0 °F 26.6 °F 70% 29.75 in 10.0 mi West 23.0 mph 31.1 mph N/A   Overcast
7:55 PM 35.6 °F 24.2 °F 26.6 °F 70% 29.76 in 10.0 mi West 21.9 mph 33.4 mph N/A   Overcast
8:15 PM 35.6 °F 24.2 °F 26.6 °F 70% 29.78 in 10.0 mi West 21.9 mph 31.1 mph N/A   Overcast
8:35 PM 35.6 °F 26.2 °F 26.6 °F 70% 29.78 in 10.0 mi West 15.0 mph 29.9 mph N/A   Overcast
8:55 PM 35.6 °F 24.0 °F 26.6 °F 70% 29.78 in 10.0 mi West 23.0 mph 31.1 mph N/A   Overcast
9:15 PM 35.6 °F 26.6 °F 26.6 °F 70% 29.79 in 10.0 mi West 13.8 mph 27.6 mph N/A   Overcast
9:35 PM 33.8 °F 22.5 °F 26.6 °F 75% 29.80 in 10.0 mi West 19.6 mph 26.5 mph N/A   Overcast
10:15 PM 33.8 °F 23.9 °F 26.6 °F 75% 29.80 in 10.0 mi West 15.0 mph 21.9 mph N/A   Overcast
10:35 PM 33.8 °F 23.9 °F 26.6 °F 75% 29.81 in 10.0 mi West 15.0 mph 24.2 mph N/A   Overcast
10:55 PM 33.8 °F 23.2 °F 26.6 °F 75% 29.81 in 10.0 mi West 17.3 mph 24.2 mph N/A   Overcast
11:15 PM 33.8 °F 24.3 °F 26.6 °F 75% 29.81 in 10.0 mi WNW 13.8 mph 19.6 mph N/A   Overcast
11:35 PM 33.8 °F 24.3 °F 26.6 °F 75% 29.82 in 10.0 mi West 13.8 mph 19.6 mph N/A   Overcast
11:55 PM 33.8 °F 24.3 °F 26.6 °F 75% 29.82 in 10.0 mi West 13.8 mph - N/A   Overcast